Regional Weather Roundup
Issued by NWS

Home | Current Version | Previous Version | Graphics & Text | Print | Product List | Glossary On
Versions: 1 2 3 4 5 6 7 8 9 10 11 12 13 14 15 16 17 18 19 20 21 22 23 24 25 26 27 28 29 30 31 32 33 34 35 36 37 38 39 40 41 42 43 44 45 46 47 48 49 50
000
ASUS43 KMKX 292311
RWRWI

WISCONSIN REGIONAL WEATHER ROUNDUP
NATIONAL WEATHER SERVICE MILWAUKEE/SULLIVAN WI
600 PM CDT WED MAR 29 2017

NOTE: "FAIR" INDICATES FEW OR NO CLOUDS BELOW 12,000 FEET WITH NO
SIGNIFICANT WEATHER AND/OR OBSTRUCTIONS TO VISIBILITY.

WIZ001-002-006>008-014>016-023>028-300000-
NORTHWEST WISCONSIN

CITY           SKY/WX    TMP DP  RH WIND       PRES   REMARKS
SUPERIOR ARPT  CLOUDY    34  31  89 E13G20    30.25F WCI  25
ASHLAND        CLOUDY    37  29  72 NE10      30.24F WCI  30
HAYWARD        CLOUDY    52  29  41 E3        30.18F
SIREN          CLOUDY    51  31  47 CALM      30.17F
CUMBERLAND     CLOUDY    45  32  61 SE5       30.17F
RICE LAKE      CLOUDY    47  32  55 CALM      30.19F
CHETEK         CLOUDY    47  35  62 E10       30.19S
LADYSMITH      CLOUDY    48  33  55 E6        30.20S
EAU CLAIRE     CLOUDY    49  33  54 E9        30.17F
MENOMONIE      CLOUDY    48  35  59 E8        30.18S
NEW RICHMOND   CLOUDY    47  32  55 E5        30.17S
OSCEOLA        CLOUDY    48  34  57 SE3       30.20S
$$

WIZ003>005-009-010-017-018-300000-
NORTH CENTRAL WISCONSIN

CITY           SKY/WX    TMP DP  RH WIND       PRES   REMARKS
MANITOWISH WTR CLOUDY    46  29  53 SE3       30.20F
ARBOR VITAE    CLOUDY    46  29  52 SE5       30.20F
WOODRUFF       CLOUDY    46  29  52 SE5       30.20F
RHINELANDER    CLOUDY    46  29  51 E8        30.21F
EAGLE RIVER    CLOUDY    44  26  48 E5        30.21F
LAND O LAKES   CLOUDY    45  28  51 E5        30.23F
PHILLIPS       CLOUDY    46  31  54 SE5       30.19F
TOMAHAWK       CLOUDY    44  29  55 CALM      30.21S
MEDFORD        CLOUDY    43  30  59 E8        30.19S
MERRILL        CLOUDY    44  31  59 E7        30.21F
$$

WIZ029-030-035-036-043>047-300000-
CENTRAL WISCONSIN

CITY           SKY/WX    TMP DP  RH WIND       PRES   REMARKS
WAUSAU         CLOUDY    43  29  57 E9        30.19F
MOSINEE        PTSUNNY   43  30  61 E9        30.20F
MARSHFIELD     CLOUDY    43  31  62 SE8       30.19F
STEVENS POINT  CLOUDY    41  28  60 E12       30.22R
WAUPACA        CLOUDY    44  32  62 NE10G17   30.20F
WAUTOMA        CLOUDY    43  31  62 E9        30.23R
WISC RAPIDS    LGT RAIN  43  34  70 E7        30.23R
CAMP DOUGLAS   CLOUDY    43  39  87 NE7       30.18R
$$

WIZ011>013-019>022-031-037>040-048>050-300000-
NORTHEAST WISCONSIN

CITY           SKY/WX    TMP DP  RH WIND       PRES   REMARKS
ANTIGO         CLOUDY    41  31  67 E7        30.21F
SHAWANO        CLOUDY    43  31  64 E6        30.25S
OCONTO         CLOUDY    38  26  62 NE5       30.26F WCI  35
STURGEON BAY   PTSUNNY   38  27  64 NE8       30.25S WCI  32
GREEN BAY      CLOUDY    40  31  70 NE13      30.23F WCI  32
MANITOWOC      CLOUDY    37  32  82 NE12      30.23F WCI  29
APPLETON       CLOUDY    41  28  60 NE12      30.20F
CLINTONVILLE   CLOUDY    41  30  65 E10       30.23F
OSHKOSH        CLOUDY    41  30  65 NE10      30.20S
$$

WIZ032>034-041-042-053>061-300000-
SOUTHWEST WISCONSIN

CITY           SKY/WX    TMP DP  RH WIND       PRES   REMARKS
LA CROSSE      LGT RAIN  47  38  71 NE9G17    30.15F
SPARTA         CLOUDY    43  39  86 E9        30.18F
VIROQUA        CLOUDY    43  38  82 E15       30.13F
BOSCOBEL       RAIN      45  38  76 E9G24     30.14F
PRAIRIE DU CHI RAIN      41  40  97 NE13G23   30.12S
PLATTEVILLE    CLOUDY    43  38  83 NE24G32   30.09S
$$

WIZ056-057-062-063-064-067-068-300000-
SOUTH CENTRAL WISCONSIN

CITY           SKY/WX    TMP DP  RH WIND       PRES   REMARKS
REEDSBURG      CLOUDY    45  40  83 NE12G17   30.16F
BARABOO/DELLS  CLOUDY    44  38  79 NE10      30.17R
LONE ROCK      CLOUDY    47  34  60 E15       30.15S
MINERAL POINT  LGT RAIN  43  37  81 E18G24    30.12R
MADISON        CLOUDY    45  33  63 NE12      30.14R
MIDDLETON      CLOUDY    46  34  63 NE12      30.15S
WATERTOWN      CLOUDY    44  35  70 NE6       30.16R
MONROE         DRIZZLE   41  34  75 NE12G17   30.11R
JANESVILLE     DRIZZLE   45  34  65 NE17G24   30.09F
$$

WIZ051-052-058>065-066-070>072-300000-
SOUTHEAST WISCONSIN

CITY           SKY/WX    TMP DP  RH WIND       PRES   REMARKS
MILWAUKEE      CLOUDY    38  34  85 N15G24    30.15F WCI  29
WAUKESHA       CLOUDY    39  32  75 NE15G22   30.15F WCI  31
MILWAUKEE/TIMM CLOUDY    37  32  81 NE12G17   30.17F WCI  30
RACINE         CLOUDY    39  34  82 NE16G23   30.15F WCI  30
KENOSHA        CLOUDY    42  33  70 NE15      30.13F
FOND DU LAC    CLOUDY    43  29  57 NE14      30.19F
SHEBOYGAN      CLOUDY    37  33  85 NE14      30.20F WCI  28
WEST BEND      CLOUDY    39  32  75 NE12      30.17S WCI  32
JUNEAU         CLOUDY    42  34  72 NE8       30.18R
$$

LSZ147-162-300000-
LAKE SUPERIOR

STATION/POSITION TIME  TEMP    WIND        PRES    WAVE
                       AIR SEA DIR/SP/G            HT/PER
                 (UTC) (F)     (DEG/KT/KT) (MB)    (FT/S)
DEVILS ISLAND    2200   34      50/ 17/ 19 1026.0F
PORT WING        2230   35      40/ 20/ 24 1024.4S
SAXON HARBOR     2230   35     310/  8/  8 1023.4F
$$

LMZ867-665-643>646-300000-
LAKE MICHIGAN

STATION/POSITION TIME  TEMP    WIND        PRES    WAVE
                       AIR SEA DIR/SP/G            HT/PER
                 (UTC) (F)     (DEG/KT/KT) (MB)    (FT/S)
CHAMBERS ISLAND  2240   36      40/ 10/ 12 1024.7F
NORTHPORT PIER   2240   36      60/  9/ 11 1025.1F
SISTER BAY       2051   41      40/  6/ 10   N/A
KEWAUNEE LAKESHO 2236   36      30/ 12/ 15 1023.9F
SHEBOYGAN LAKESH 2300   36      10/ 19/ 21 1023.0F
PORT WASHINGTON  2230   39      30/  9/ 16 1023.4F
MILWAUKEE LAKESH 2250   37      20/ 16/ 18   N/A
KENOSHA   LAKESH 2300   39      30/ 16/ 18 1020.0
$$

TC  - TEMPERATURE IN CELSIUS
VSB - VISIBILITY IN STATUTE MILES
WCI - WIND CHILL INDEX
HX  - HEAT INDEX





USA.gov is the U.S. government's official web portal to all federal, state and local government web resources and services.